Location: Colle Santa Colomba
(42.0333°N, 12.5667°E)
Time: 04:02:37
(UTC+00:00)

FALCON 9 DEB - Pass Details

Date: 25 October 2021
Orbit: 337 x 350 km, 53.0° (Epoch: 05 December)

Event Time Altitude Azimuth Distance (km) Brightness Sun altitude
Rises 18:06:05 0° 240° (WSW) 2,166 7.6 -21.6°
Reaches altitude 10° 18:08:06 10° 244° (WSW) 1,331 6.4 -22.0°
Enters shadow 18:10:10 39° 265° (W) 562 4.2 -22.4°
